Tracking 25709 objects as of 23-May-2022
HD Live streaming from Space Station
objects crossing your sky now

SPACEBEE-50

Track SPACEBEE-50 now!
10-day predictions


NORAD ID: 47443
Int'l Code: 2021-006AG
Perigee: 514.7 km
Apogee: 521.7 km
Inclination: 97.4 °
Period: 94.8 minutes
Semi major axis: 6889 km
RCS: Unknown
Launch date: January 24, 2021
Source: United States (US)
Launch site: AIR FORCE EASTERN TEST RANGE (AFETR)
aabbcc
Your satellite tracking list
Your tracking list is empty




NASA's NSSDC Master Catalog

Two Line Element Set (TLE):
1 47443U 21006AG  22143.44851526  .00028275  00000-0  13784-2 0  9997
2 47443  97.4490 203.3980 0005032  30.4621 329.6904 15.18274695 73481
Source of the keplerian elements: AFSPC